Weather History for Kansas City, MO

Change the Weather History Date:

Saturday, August 3, 2013

  Actual Average Record
Temperature  
Mean Temperature 78 °F -  
Max Temperature 84 °F 87 °F 100 °F (2010)
Min Temperature 72 °F 69 °F 66 °F (2003)
Cooling Degree Days 13    
Growing Degree Days 28 (Base 50)    
Moisture  
Dew Point 69 °F    
Average Humidity 75    
Maximum Humidity 87    
Minimum Humidity 61    
Precipitation  
Precipitation 0.00 in - - ()
Sea Level Pressure  
Sea Level Pressure 30.01 in    
Wind  
Wind Speed 6 mph (ENE)    
Max Wind Speed 9 mph    
Max Gust Speed 16 mph    
Visibility 10 miles    
Events      
Averages and records for this station are not official NWS values.
T = Trace of Precipitation, MM = Missing Value Source: NWS Daily Summary

Daily Weather History Graph

Daily Weather History Graph

Search for Another Location

Airport:

Trip Planner

Search our weather history database for the weather conditions in past years. The results will help you decide how hot, cold, wet, or windy it might be!

Date:

Astronomy

Aug. 03, 2013 Rise Set
Actual Time 6:20 AM CDT 8:27 PM CDT
Civil Twilight 5:51 AM CDT 8:57 PM CDT
Nautical Twilight 5:15 AM CDT 9:33 PM CDT
Astronomical Twilight 4:35 AM CDT 10:12 PM CDT
Moon 3:31 AM CDT (8/3) 6:10 PM CDT (8/3)
Length of Visible Light 15h 05m
Length of Day
14h 06m
Waning Crescent, 9% of the Moon is Illuminated
Aug 3
Waning Crescent
Aug 6
New
Aug 14
First Quarter
Aug 20
Full
Aug 28
Last Quarter

Hourly Weather History & Observations

Time (CDT) Temp. Heat Index Dew Point Humidity Pressure Visibility Wind Dir Wind Speed Gust Speed Precip Events Conditions
12:54 AM 77.0 °F - 71.1 °F 82% 29.94 in 10.0 mi ENE 5.8 mph - N/A   Overcast
1:54 AM 75.9 °F - 71.1 °F 85% 29.92 in 10.0 mi ENE 8.1 mph - N/A   Overcast
2:54 AM 75.0 °F - 70.0 °F 84% 29.91 in 10.0 mi East 4.6 mph - N/A   Partly Cloudy
3:54 AM 75.0 °F - 69.1 °F 82% 29.94 in 10.0 mi Calm Calm - N/A   Overcast
4:08 AM 75.2 °F - 69.8 °F 83% 29.96 in 10.0 mi Calm Calm - N/A   Overcast
4:23 AM 75.2 °F - 69.8 °F 83% 29.96 in 10.0 mi North 3.5 mph - N/A   Overcast
4:51 AM 75.2 °F - 69.8 °F 83% 29.98 in 10.0 mi East 6.9 mph - N/A   Overcast
4:54 AM 75.0 °F - 69.1 °F 82% 29.96 in 10.0 mi East 6.9 mph - N/A   Overcast
5:15 AM 75.2 °F - 69.8 °F 83% 29.98 in 10.0 mi ENE 9.2 mph - N/A   Overcast
5:54 AM 73.0 °F - 69.1 °F 87% 29.97 in 10.0 mi NE 6.9 mph - N/A   Mostly Cloudy
6:54 AM 73.9 °F - 69.1 °F 85% 30.00 in 10.0 mi East 8.1 mph - N/A   Overcast
7:54 AM 73.0 °F - 68.0 °F 84% 30.02 in 10.0 mi NE 9.2 mph - N/A   Overcast
8:54 AM 72.0 °F - 64.9 °F 78% 30.02 in 10.0 mi ENE 9.2 mph - N/A   Overcast
9:54 AM 75.0 °F - 66.9 °F 76% 30.05 in 10.0 mi ENE 8.1 mph - N/A   Scattered Clouds
10:54 AM 78.1 °F - 69.1 °F 74% 30.06 in 10.0 mi ENE 4.6 mph - N/A   Mostly Cloudy
11:54 AM 78.1 °F - 68.0 °F 71% 30.06 in 10.0 mi East 9.2 mph - N/A   Overcast
12:54 PM 80.1 °F 82.9 °F 69.1 °F 69% 30.07 in 10.0 mi East 6.9 mph - N/A   Overcast
1:54 PM 82.0 °F 85.9 °F 70.0 °F 67% 30.06 in 10.0 mi East 9.2 mph 16.1 mph N/A   Scattered Clouds
2:54 PM 82.9 °F 87.0 °F 70.0 °F 65% 30.05 in 10.0 mi ESE 6.9 mph - N/A   Scattered Clouds
3:54 PM 84.0 °F 87.8 °F 69.1 °F 61% 30.04 in 10.0 mi ENE 9.2 mph - N/A   Partly Cloudy
4:54 PM 84.0 °F 88.4 °F 70.0 °F 63% 30.04 in 10.0 mi East 8.1 mph - N/A   Overcast
5:54 PM 84.0 °F 88.4 °F 70.0 °F 63% 30.04 in 10.0 mi East 8.1 mph - N/A   Mostly Cloudy
6:54 PM 82.9 °F 87.0 °F 70.0 °F 65% 30.03 in 10.0 mi ESE 6.9 mph - N/A   Clear
7:54 PM 81.0 °F 84.1 °F 69.1 °F 67% 30.04 in 10.0 mi ESE 8.1 mph - N/A   Clear
8:54 PM 80.1 °F 83.2 °F 70.0 °F 71% 30.04 in 10.0 mi SE 6.9 mph - N/A   Partly Cloudy
9:54 PM 79.0 °F - 70.0 °F 74% 30.07 in 10.0 mi East 4.6 mph - N/A   Clear
10:54 PM 79.0 °F - 71.1 °F 77% 30.09 in 10.0 mi East 4.6 mph - N/A   Overcast
11:54 PM 77.0 °F - 64.0 °F 64% 30.11 in 10.0 mi ENE 9.2 mph - N/A   Overcast